Regional Weather Roundup
Issued by NWS

Current Version | Previous Version | Graphics & Text | Print | Product List | Glossary On
Versions: 1 2 3 4 5 6 7 8 9 10 11 12 13 14 15 16 17 18 19 20 21 22 23 24 25 26 27 28 29 30 31 32 33 34 35 36 37 38 39 40 41 42 43 44 45 46 47 48 49 50
000
ASUS44 KBMX 070310
RWRAL

ALABAMA REGIONAL WEATHER ROUNDUP
NATIONAL WEATHER SERVICE BIRMINGHAM AL
1000 PM CDT SAT JUN 06 2020

NOTE: "FAIR" INDICATES FEW OR NO CLOUDS BELOW 12,000 FEET
WITH NO SIGNIFICANT WEATHER AND/OR OBSTRUCTIONS TO VISIBILITY.

THE REMARK "TC" DENOTES TEMPERATURE IN DEGREES CELSIUS.

ALZ001>011-014-016>018-020-070400-
NORTH ALABAMA

CITY           SKY/WX    TMP DP  RH WIND       PRES   REMARKS
MUSCLE SHOALS  MOCLDY    79  72  79 E3        29.93R
HUNTSVILLE     PTCLDY    78  71  79 E5        29.94R
DECATUR        CLEAR     75  72  90 CALM      29.94R
HALEYVILLE     FAIR      73  71  93 CALM      29.97R
GADSDEN        MOCLDY    77  73  87 CALM      29.95R
$$

ALZ012-013-022-023-030>036-040>044-070400-
WEST CENTRAL ALABAMA

CITY           SKY/WX    TMP DP  RH WIND       PRES   REMARKS
TUSCALOOSA     CLOUDY    81  72  74 SE7       29.92R
DEMOPOLIS      FAIR      75  69  79 NE3       29.90R
$$

ALZ015-024>026-033>036-041>044-070400-
CENTRAL ALABAMA

CITY           SKY/WX    TMP DP  RH WIND       PRES   REMARKS
BIRMINGHAM     CLOUDY    80  70  71 CALM      29.96R
MONTGOMERY     CLOUDY    75  71  87 E10       29.93R
SHELBY CO ARPT CLOUDY    76  69  79 CALM      29.95R
MAXWELL AFB    CLOUDY    76  71  83 E9        29.93R
GREENVILLE     LGT RAIN  74  69  85 E8        29.91R
SELMA          FAIR      75  70  83 CALM      29.90R
PRATTVILLE     FAIR      74  70  87 E3        29.93R
BESSEMER       FAIR      76  69  79 SE8       29.95R
TALLADEGA      FAIR      77  72  86 S6        29.96R
PELL CITY      PTCLDY    75  75 100 CALM      29.95R
MARION         FAIR      73  71  92 CALM      29.91R
SYLACAUGA      FOG       74  70  85 CALM      29.96R VSB 1/4
$$

ALZ019-021-028-029-037-038-045>048-070400-
EAST CENTRAL ALABAMA

CITY           SKY/WX    TMP DP  RH WIND       PRES   REMARKS
ANNISTON       CLOUDY    77  72  84 E3        29.95S
ALEXANDER CITY CLOUDY    74  70  85 SE3       29.97R
AUBURN         CLOUDY    72  70  93 E5        29.99R
$$

ALZ051>064-070400-
SOUTHWEST ALABAMA

CITY           SKY/WX    TMP DP  RH WIND       PRES   REMARKS
MOBILE         LGT RAIN  73  73 100 E13       29.83S
BROOKLEY FIELD CLOUDY    78  74  87 E18       29.83S
EVERGREEN      LGT RAIN  76  70  82 E6        29.90R
$$

ALZ049-050-065>069-070400-
SOUTHEAST ALABAMA

CITY           SKY/WX    TMP DP  RH WIND       PRES   REMARKS
DOTHAN         LGT RAIN  74  70  87 SE10      29.96R
OZARK          DRIZZLE   73  71  91 E5        29.92S
TROY           CLOUDY    74  70  87 SE7       29.94R
EUFAULA        NOT AVBL
$$




USA.gov is the U.S. government's official web portal to all federal, state and local government web resources and services.